Location: Jackson Park
(37.2862°N, 79.9123°W)
Time: 20:48:10
(UTC+00:00)

Vanguard 2 Rocket - Pass Details

Date: 10 May 2026
Orbit: 553 x 3286 km, 32.9° (Epoch: 6 June)

Event Time Altitude Azimuth Distance (km) Brightness Sun altitude
Rises 20:48:13 0° 273° (W) 6,857 12.2 39.8°
Reaches altitude 10° 20:52:30 10° 272° (W) 6,024 12.3 39.0°
Maximum altitude 21:12:27 73° 193° (SSW) 3,288 10.4 35.1°
Drops below altitude 10° 21:29:10 10° 112° (ESE) 5,173 10.3 31.7°
Sets 21:32:32 0° 111° (ESE) 5,890 10.5 31.1°
